• In France
  • List of Countries
  • For 7 days
  • Water Temperature
  • Satellite Maps
  • Weather Map
  • Weather Widgets
  • user-avatar
    Login

    Hourly Weather Río Gallegos

    Today, 19 January, Friday

    Time Temperature Precipitation Wind Pressure Humidity
    00:00 +13°C° 0 mm 6 mps 754 mmHg 69%
    01:00 +13°C° 0 mm 4 mps 753 mmHg 71%
    02:00 +13°C° 0.1 mm 5 mps 753 mmHg 71%
    03:00 +13°C° 0.1 mm 5 mps 753 mmHg 71%
    04:00 +13°C° 0.1 mm 5 mps 752 mmHg 71%
    05:00 +13°C° 0.3 mm 6 mps 752 mmHg 70%
    06:00 +14°C° 0.3 mm 7 mps 752 mmHg 69%
    07:00 +13°C° 0.3 mm 9 mps 751 mmHg 68%
    08:00 +16°C° 0.1 mm 9 mps 750 mmHg 62%
    09:00 +19°C° 0.1 mm 9 mps 750 mmHg 57%
    10:00 +22°C° 0.1 mm 8 mps 749 mmHg 51%
    11:00 +22°C° 0 mm 9 mps 749 mmHg 52%
    12:00 +22°C° 0 mm 9 mps 749 mmHg 53%
    13:00 +22°C° 0 mm 9 mps 749 mmHg 53%
    14:00 +22°C° 0 mm 9 mps 749 mmHg 55%
    15:00 +21°C° 0 mm 9 mps 749 mmHg 57%
    16:00 +19°C° 0 mm 10 mps 749 mmHg 59%
    17:00 +18°C° 0 mm 10 mps 749 mmHg 60%
    18:00 +18°C° 0 mm 11 mps 750 mmHg 61%
    19:00 +17°C° 0 mm 11 mps 750 mmHg 62%
    20:00 +15°C° 0 mm 12 mps 751 mmHg 63%
    21:00 +14°C° 0 mm 13 mps 751 mmHg 64%
    22:00 +13°C° 0 mm 14 mps 752 mmHg 65%
    23:00 +12°C° 0 mm 13 mps 753 mmHg 64%

    Tomorrow, 20 January, Saturday

    Time Temperature Precipitation Wind Pressure Humidity
    00:00 +10°C° 0 mm 13 mps 753 mmHg 64%
    01:00 +9°C° 0 mm 12 mps 754 mmHg 63%
    02:00 +8°C° 0 mm 11 mps 754 mmHg 64%
    03:00 +8°C° 0 mm 10 mps 755 mmHg 65%
    04:00 +7°C° 0 mm 9 mps 756 mmHg 66%
    05:00 +8°C° 0 mm 9 mps 756 mmHg 62%
    06:00 +9°C° 0 mm 10 mps 757 mmHg 58%
    07:00 +11°C° 0 mm 11 mps 757 mmHg 54%
    08:00 +11°C° 0 mm 10 mps 757 mmHg 51%
    09:00 +12°C° 0 mm 10 mps 757 mmHg 48%
    10:00 +13°C° 0 mm 10 mps 757 mmHg 44%
    11:00 +16°C° 0 mm 9 mps 757 mmHg 40%
    12:00 +17°C° 0 mm 9 mps 756 mmHg 36%
    13:00 +18°C° 0 mm 9 mps 756 mmHg 32%
    14:00 +19°C° 0 mm 9 mps 755 mmHg 32%
    15:00 +19°C° 0 mm 9 mps 755 mmHg 33%
    16:00 +19°C° 0 mm 9 mps 754 mmHg 34%
    17:00 +18°C° 0 mm 8 mps 754 mmHg 38%
    18:00 +17°C° 0 mm 8 mps 754 mmHg 43%
    19:00 +15°C° 0 mm 7 mps 753 mmHg 48%
    20:00 +15°C° 0 mm 7 mps 753 mmHg 49%
    21:00 +14°C° 0 mm 6 mps 753 mmHg 51%
    22:00 +13°C° 0 mm 5 mps 753 mmHg 52%
    23:00 +13°C° 0 mm 5 mps 753 mmHg 51%

    Day after tomorrow, 21 January, Sunday

    Time Temperature Precipitation Wind Pressure Humidity
    00:00 +12°C° 0 mm 5 mps 752 mmHg 49%
    01:00 +12°C° 0 mm 5 mps 752 mmHg 48%
    02:00 +11°C° 0 mm 6 mps 752 mmHg 48%
    03:00 +10°C° 0 mm 6 mps 752 mmHg 48%
    04:00 +10°C° 0 mm 7 mps 752 mmHg 49%
    05:00 +11°C° 0 mm 7 mps 752 mmHg 47%
    06:00 +12°C° 0 mm 8 mps 752 mmHg 46%
    07:00 +13°C° 0 mm 8 mps 752 mmHg 45%
    08:00 +15°C° 0 mm 8 mps 751 mmHg 44%
    09:00 +17°C° 0 mm 8 mps 751 mmHg 43%
    10:00 +18°C° 0 mm 8 mps 750 mmHg 41%
    11:00 +18°C° 0 mm 9 mps 750 mmHg 41%
    12:00 +19°C° 0 mm 9 mps 749 mmHg 40%
    13:00 +19°C° 0 mm 9 mps 749 mmHg 40%
    14:00 +19°C° 0 mm 9 mps 749 mmHg 40%
    15:00 +19°C° 0 mm 9 mps 748 mmHg 41%
    16:00 +19°C° 0 mm 9 mps 748 mmHg 41%
    17:00 +18°C° 0.1 mm 9 mps 748 mmHg 44%
    18:00 +17°C° 0.1 mm 8 mps 748 mmHg 47%
    19:00 +16°C° 0.1 mm 8 mps 748 mmHg 50%
    20:00 +15°C° 0 mm 7 mps 748 mmHg 53%
    21:00 +14°C° 0 mm 7 mps 748 mmHg 56%
    22:00 +12°C° 0 mm 7 mps 748 mmHg 59%
    23:00 +11°C° 0 mm 7 mps 747 mmHg 61%

    22 January, Monday

    Time Temperature Precipitation Wind Pressure Humidity
    00:00 +10°C° 0 mm 7 mps 747 mmHg 63%
    01:00 +10°C° 0 mm 7 mps 747 mmHg 65%
    02:00 +9°C° 0.2 mm 8 mps 747 mmHg 64%
    03:00 +8°C° 0.2 mm 9 mps 748 mmHg 62%
    04:00 +7°C° 0.2 mm 10 mps 748 mmHg 61%
    05:00 +7°C° 0 mm 10 mps 748 mmHg 58%
    06:00 +7°C° 0 mm 10 mps 749 mmHg 55%
    07:00 +7°C° 0 mm 10 mps 749 mmHg 53%
    08:00 +8°C° 0 mm 10 mps 749 mmHg 49%
    09:00 +11°C° 0 mm 9 mps 749 mmHg 45%
    10:00 +12°C° 0 mm 9 mps 749 mmHg 41%
    11:00 +12°C° 0 mm 9 mps 749 mmHg 40%
    12:00 +12°C° 0 mm 9 mps 749 mmHg 39%
    13:00 +13°C° 0 mm 10 mps 749 mmHg 38%
    14:00 +12°C° 0.1 mm 10 mps 749 mmHg 39%
    15:00 +12°C° 0.1 mm 11 mps 749 mmHg 41%
    16:00 +12°C° 0.1 mm 11 mps 749 mmHg 42%
    17:00 +11°C° 0.1 mm 11 mps 750 mmHg 43%
    18:00 +9°C° 0.1 mm 11 mps 751 mmHg 45%
    19:00 +9°C° 0.1 mm 10 mps 751 mmHg 46%
    20:00 +8°C° 0 mm 10 mps 752 mmHg 50%
    21:00 +7°C° 0 mm 10 mps 752 mmHg 54%
    22:00 +6°C° 0 mm 10 mps 753 mmHg 57%
    23:00 +6°C° 0 mm 10 mps 753 mmHg 59%

    23 January, Tuesday

    Time Temperature Precipitation Wind Pressure Humidity
    00:00 +5°C° 0 mm 10 mps 753 mmHg 61%
    01:00 +5°C° 0 mm 10 mps 754 mmHg 63%
    02:00 +5°C° 0 mm 10 mps 754 mmHg 63%
    03:00 +3°C° 0 mm 10 mps 754 mmHg 64%
    04:00 +3°C° 0 mm 10 mps 755 mmHg 65%
    05:00 +4°C° 0 mm 11 mps 755 mmHg 61%
    06:00 +6°C° 0 mm 11 mps 756 mmHg 58%
    07:00 +6°C° 0 mm 11 mps 756 mmHg 55%
    08:00 +7°C° 0 mm 11 mps 756 mmHg 50%
    09:00 +8°C° 0 mm 11 mps 757 mmHg 46%
    10:00 +9°C° 0 mm 10 mps 757 mmHg 42%
    11:00 +11°C° 0.1 mm 10 mps 757 mmHg 41%
    12:00 +11°C° 0.1 mm 10 mps 757 mmHg 41%
    13:00 +11°C° 0.1 mm 9 mps 758 mmHg 40%
    14:00 +11°C° 0.1 mm 10 mps 758 mmHg 41%
    15:00 +11°C° 0.1 mm 10 mps 759 mmHg 41%
    16:00 +11°C° 0.1 mm 10 mps 759 mmHg 42%
    17:00 +11°C° 0.1 mm 10 mps 760 mmHg 43%
    18:00 +10°C° 0.1 mm 9 mps 760 mmHg 45%
    19:00 +10°C° 0.1 mm 9 mps 761 mmHg 46%
    20:00 +8°C° 0 mm 9 mps 762 mmHg 50%
    21:00 +7°C° 0 mm 8 mps 762 mmHg 54%
    22:00 +6°C° 0 mm 7 mps 763 mmHg 58%
    23:00 +6°C° 0 mm 7 mps 763 mmHg 62%

    24 January, Wednesday

    Time Temperature Precipitation Wind Pressure Humidity
    00:00 +6°C° 0 mm 7 mps 763 mmHg 65%
    01:00 +5°C° 0 mm 7 mps 763 mmHg 68%
    02:00 +5°C° 0 mm 7 mps 764 mmHg 69%
    03:00 +5°C° 0 mm 7 mps 764 mmHg 71%
    04:00 +4°C° 0 mm 6 mps 764 mmHg 72%
    05:00 +6°C° 0 mm 7 mps 764 mmHg 67%
    06:00 +8°C° 0 mm 7 mps 764 mmHg 61%
    07:00 +9°C° 0 mm 7 mps 764 mmHg 56%
    08:00 +10°C° 0 mm 7 mps 764 mmHg 51%
    09:00 +12°C° 0 mm 7 mps 763 mmHg 46%
    10:00 +14°C° 0 mm 7 mps 763 mmHg 42%
    11:00 +15°C° 0 mm 7 mps 763 mmHg 39%
    12:00 +16°C° 0 mm 7 mps 762 mmHg 36%
    13:00 +18°C° 0 mm 7 mps 762 mmHg 34%
    14:00 +19°C° 0 mm 6 mps 762 mmHg 34%
    15:00 +20°C° 0 mm 6 mps 761 mmHg 34%
    16:00 +20°C° 0 mm 6 mps 761 mmHg 34%
    17:00 +19°C° 0 mm 5 mps 761 mmHg 37%
    18:00 +19°C° 0 mm 5 mps 761 mmHg 40%
    19:00 +18°C° 0 mm 4 mps 761 mmHg 44%
    20:00 +17°C° 0 mm 4 mps 760 mmHg 48%
    21:00 +14°C° 0 mm 4 mps 760 mmHg 53%
    22:00 +13°C° 0 mm 3 mps 760 mmHg 57%
    23:00 +13°C° 0 mm 3 mps 760 mmHg 59%
    Show more